RJA148 EDDH-OJAI

Flight info

Callsign RJA148
Flight time N/A
Altitude 33000
Route RAMAR6G RAMAR DCT PABMI DCT RADEL DCT SUBIX/N0412F270 L867 REGLI/N0452F330 DCT REVMA DCT PITOK DCT NARKA DCT TIMUR DCT ADORU UG80 EKI UW81 YAYLA UL854 KULAR UT39 TOMBI DCT IDAKU L35 PIKOG L609 VOLFO N134 SALAM DCT RALNA
Aircraft A21N/M-SDE2E3FGHIRWXY/LB1

Departure

Time 2026-04-21 12:59
Airport Hamburg Helmut Schmidt Airport (EDDH)

Arrival

Time N/A
Airport Queen Alia International Airport (OJAI)
Time Latitude Longitude Altitude Speed Heading
2026-04-21 12:18 53.63412 10.00328 57 ft 0 kts 86°
2026-04-21 12:52 53.63411 10.00301 56 ft 4 kts 92°
2026-04-21 12:52 53.63415 10.00257 55 ft 4 kts 112°
2026-04-21 12:52 53.63429 10.00223 51 ft 4 kts 150°
2026-04-21 12:52 53.63444 10.00215 51 ft 1 kts 175°
2026-04-21 12:53 53.63446 10.00214 51 ft 0 kts 175°
2026-04-21 12:55 53.63422 10.00217 55 ft 10 kts 175°
2026-04-21 12:55 53.63347 10.00225 56 ft 12 kts 180°
2026-04-21 12:55 53.63258 10.00234 55 ft 13 kts 175°
2026-04-21 12:56 53.63166 10.00256 51 ft 14 kts 185°
2026-04-21 12:56 53.63067 10.00253 56 ft 15 kts 206°
2026-04-21 12:56 53.62979 10.00154 55 ft 16 kts 227°
2026-04-21 12:56 53.62926 10.00009 55 ft 10 kts 237°
2026-04-21 12:57 53.62891 9.99908 55 ft 9 kts 240°
2026-04-21 12:57 53.62863 9.99807 56 ft 10 kts 250°
2026-04-21 12:57 53.62902 9.99711 55 ft 8 kts 333°
2026-04-21 12:57 53.62922 9.99695 58 ft 0 kts 334°
2026-04-21 12:58 53.63078 9.99561 54 ft 61 kts 333°
2026-04-21 12:58 53.63659 9.99059 51 ft 127 kts 333°
2026-04-21 12:58 53.64606 9.98243 130 ft 171 kts 328°
2026-04-21 12:59 53.65575 9.97272 963 ft 155 kts 336°
2026-04-21 12:59 53.66586 9.96449 1574 ft 165 kts 341°
2026-04-21 12:59 53.67656 9.95571 2054 ft 178 kts 339°
2026-04-21 12:59 53.68826 9.94757 2568 ft 190 kts 352°
2026-04-21 13:00 53.70171 9.94624 3029 ft 200 kts
2026-04-21 13:00 53.71631 9.94675 3455 ft 222 kts
2026-04-21 13:00 53.73178 9.95190 4036 ft 230 kts 31°
2026-04-21 13:00 53.74360 9.97083 4608 ft 240 kts 61°
2026-04-21 13:01 53.75080 9.99633 5304 ft 247 kts 66°
2026-04-21 13:01 53.75787 10.02300 6116 ft 250 kts 66°
2026-04-21 13:01 53.76517 10.04983 6913 ft 253 kts 65°
2026-04-21 13:01 53.76769 10.05894 7155 ft 254 kts 65°
2026-04-21 13:02 53.78040 10.10433 8412 ft 259 kts 65°
2026-04-21 13:02 53.78824 10.13196 9200 ft 261 kts 65°
2026-04-21 13:02 53.80423 10.18793 10607 ft 271 kts 65°
2026-04-21 13:03 53.81267 10.21756 10892 ft 289 kts 65°
2026-04-21 13:03 53.82171 10.24917 11136 ft 308 kts 65°
2026-04-21 13:03 53.83130 10.28275 11365 ft 326 kts 65°
2026-04-21 13:03 53.84079 10.31872 11618 ft 342 kts 71°
2026-04-21 13:04 53.84501 10.35869 12114 ft 350 kts 88°
2026-04-21 13:04 53.84196 10.39977 12768 ft 355 kts 100°
2026-04-21 13:04 53.83625 10.44057 13446 ft 357 kts 102°
2026-04-21 13:04 53.83032 10.48162 14098 ft 360 kts 101°
2026-04-21 13:05 53.82449 10.52294 14665 ft 363 kts 101°
2026-04-21 13:05 53.81868 10.56465 15210 ft 365 kts 101°
2026-04-21 13:05 53.81290 10.60667 15777 ft 368 kts 101°
2026-04-21 13:05 53.80706 10.64900 16352 ft 371 kts 101°
2026-04-21 13:06 53.80012 10.69116 16937 ft 375 kts 108°
2026-04-21 13:06 53.78829 10.73091 17508 ft 381 kts 118°
2026-04-21 13:06 53.77418 10.76908 18092 ft 385 kts 119°
2026-04-21 13:06 53.76460 10.79435 18467 ft 387 kts 120°
2026-04-21 13:07 53.74521 10.84592 19164 ft 390 kts 119°
2026-04-21 13:07 53.73070 10.88480 19651 ft 393 kts 119°
2026-04-21 13:07 53.71632 10.92343 20148 ft 394 kts 119°
2026-04-21 13:07 53.70085 10.96258 20650 ft 397 kts 121°
2026-04-21 13:08 53.68519 11.00041 21139 ft 399 kts 121°
2026-04-21 13:08 53.66921 11.03890 21630 ft 401 kts 121°
2026-04-21 13:08 53.65312 11.07749 22091 ft 403 kts 121°
2026-04-21 13:08 53.63700 11.11624 22540 ft 405 kts 121°
2026-04-21 13:09 53.62078 11.15517 22968 ft 407 kts 121°
2026-04-21 13:09 53.60450 11.19430 23397 ft 409 kts 121°
2026-04-21 13:09 53.58808 11.23359 23849 ft 411 kts 121°
2026-04-21 13:09 53.57160 11.27304 24218 ft 413 kts 121°
2026-04-21 13:10 53.55503 11.31261 24597 ft 415 kts 121°
2026-04-21 13:10 53.53833 11.35230 24978 ft 416 kts 121°
2026-04-21 13:10 53.52162 11.39207 25368 ft 418 kts 121°
2026-04-21 13:10 53.50482 11.43193 25734 ft 419 kts 121°
2026-04-21 13:11 53.48794 11.47198 26088 ft 421 kts 121°
2026-04-21 13:11 53.47098 11.51214 26442 ft 422 kts 121°
2026-04-21 13:11 53.45396 11.55242 26779 ft 424 kts 121°
2026-04-21 13:11 53.43684 11.59273 27151 ft 424 kts 121°
2026-04-21 13:12 53.41981 11.63288 27628 ft 422 kts 121°
2026-04-21 13:12 53.40358 11.67373 28114 ft 417 kts 116°
2026-04-21 13:12 53.38986 11.71630 28579 ft 414 kts 114°
2026-04-21 13:12 53.37688 11.75855 29020 ft 412 kts 114°
2026-04-21 13:13 53.36366 11.80171 29456 ft 411 kts 114°
2026-04-21 13:13 53.35059 11.84413 29885 ft 409 kts 114°
2026-04-21 13:13 53.33768 11.88580 30281 ft 408 kts 114°
2026-04-21 13:13 53.32458 11.92788 30596 ft 408 kts 114°
2026-04-21 13:14 53.31143 11.97001 30846 ft 408 kts 114°
2026-04-21 13:14 53.29835 12.01197 31080 ft 409 kts 114°
2026-04-21 13:14 53.28515 12.05424 31332 ft 409 kts 114°
2026-04-21 13:14 53.27197 12.09638 31574 ft 409 kts 114°
2026-04-21 13:15 53.25875 12.13847 31816 ft 409 kts 114°
2026-04-21 13:15 53.24553 12.18060 32043 ft 410 kts 114°
2026-04-21 13:15 53.23225 12.22274 32262 ft 410 kts 114°
2026-04-21 13:15 53.21893 12.26500 32488 ft 410 kts 114°
2026-04-21 13:16 53.20564 12.30711 32696 ft 411 kts 114°
2026-04-21 13:16 53.19234 12.34927 32918 ft 411 kts 114°
2026-04-21 13:16 53.17896 12.39140 33091 ft 412 kts 114°
2026-04-21 13:16 53.16557 12.43368 33270 ft 412 kts 114°
2026-04-21 13:17 53.15213 12.47592 33454 ft 413 kts 114°
2026-04-21 13:17 53.13869 12.51815 33638 ft 413 kts 114°
2026-04-21 13:17 53.12518 12.56046 33821 ft 413 kts 115°
2026-04-21 13:17 53.11168 12.60269 33999 ft 413 kts 114°
2026-04-21 13:18 53.09818 12.64493 34155 ft 413 kts 115°
2026-04-21 13:18 53.08467 12.68710 34317 ft 414 kts 115°
2026-04-21 13:18 53.07111 12.72939 34435 ft 414 kts 115°
2026-04-21 13:18 53.05751 12.77162 34543 ft 415 kts 115°
2026-04-21 13:19 53.03024 12.85590 34695 ft 419 kts 115°
2026-04-21 13:19 53.00261 12.94141 34874 ft 421 kts 115°
2026-04-21 13:20 52.97473 13.02711 35071 ft 423 kts 115°
2026-04-21 13:20 52.94638 13.11274 35251 ft 425 kts 117°
2026-04-21 13:21 52.91529 13.19628 35354 ft 426 kts 118°
2026-04-21 13:21 52.88395 13.27953 35349 ft 426 kts 118°
2026-04-21 13:22 52.85254 13.36285 35331 ft 426 kts 118°
2026-04-21 13:22 52.82104 13.44601 35326 ft 426 kts 118°
2026-04-21 13:23 52.78960 13.52896 35325 ft 426 kts 118°
2026-04-21 13:23 52.75800 13.61195 35319 ft 426 kts 118°
2026-04-21 13:24 52.72665 13.69413 35329 ft 426 kts 118°
2026-04-21 13:24 52.69500 13.77671 35314 ft 426 kts 119°
2026-04-21 13:25 52.66326 13.85920 35314 ft 426 kts 119°
2026-04-21 13:25 52.63152 13.94163 35313 ft 426 kts 119°
2026-04-21 13:26 52.59972 14.02393 35304 ft 426 kts 119°
2026-04-21 13:26 52.56784 14.10605 35303 ft 426 kts 119°
2026-04-21 13:27 52.53581 14.18827 35305 ft 427 kts 119°
2026-04-21 13:27 52.50375 14.27037 35302 ft 427 kts 119°
2026-04-21 13:28 52.47153 14.35246 35293 ft 427 kts 119°
2026-04-21 13:28 52.43934 14.43437 35292 ft 427 kts 119°
2026-04-21 13:29 52.40707 14.51615 35290 ft 427 kts 119°
2026-04-21 13:29 52.37252 14.59561 35287 ft 432 kts 129°
2026-04-21 13:30 52.32887 14.66389 35286 ft 436 kts 134°
2026-04-21 13:30 52.28431 14.73063 35281 ft 437 kts 133°
2026-04-21 13:31 52.23967 14.79812 35278 ft 437 kts 133°
2026-04-21 13:31 52.19506 14.86549 35278 ft 437 kts 133°
2026-04-21 13:32 52.15036 14.93282 35283 ft 438 kts 133°
2026-04-21 13:32 52.10550 15.00009 35271 ft 439 kts 134°
2026-04-21 13:33 52.06815 15.05608 35269 ft 439 kts 134°
2026-04-21 13:33 52.02317 15.12331 35271 ft 440 kts 134°
2026-04-21 13:34 51.97796 15.19058 35262 ft 441 kts 134°
2026-04-21 13:34 51.93275 15.25776 35261 ft 441 kts 134°
2026-04-21 13:35 51.88739 15.32498 35271 ft 442 kts 134°
2026-04-21 13:35 51.84198 15.39209 35257 ft 442 kts 134°
2026-04-21 13:36 51.79647 15.45906 35255 ft 442 kts 134°
2026-04-21 13:36 51.75095 15.52588 35249 ft 442 kts 134°
2026-04-21 13:37 51.70561 15.59232 35253 ft 445 kts 134°
2026-04-21 13:37 51.65970 15.65935 35249 ft 445 kts 135°
2026-04-21 13:38 51.61372 15.72621 35248 ft 446 kts 135°
2026-04-21 13:38 51.56769 15.79303 35239 ft 446 kts 135°
2026-04-21 13:39 51.52162 15.85977 35238 ft 446 kts 135°
2026-04-21 13:39 51.47555 15.92629 35233 ft 446 kts 135°
2026-04-21 13:40 51.42943 15.99272 35245 ft 446 kts 135°
2026-04-21 13:40 51.38297 16.05931 35243 ft 449 kts 135°
2026-04-21 13:41 51.33639 16.12601 35237 ft 449 kts 135°
2026-04-21 13:41 51.28977 16.19248 35233 ft 449 kts 135°
2026-04-21 13:42 51.24313 16.25882 35224 ft 449 kts 135°
2026-04-21 13:42 51.19679 16.32466 35239 ft 449 kts 135°
2026-04-21 13:43 51.15001 16.39085 35235 ft 450 kts 136°
2026-04-21 13:43 51.10301 16.45714 35232 ft 453 kts 136°
2026-04-21 13:44 51.05585 16.52350 35222 ft 454 kts 136°
2026-04-21 13:44 51.00847 16.59006 35222 ft 454 kts 136°
2026-04-21 13:45 50.96111 16.65631 35223 ft 454 kts 136°
2026-04-21 13:45 50.91372 16.72243 35230 ft 454 kts 136°
2026-04-21 13:46 50.86623 16.78852 35217 ft 454 kts 137°
2026-04-21 13:46 50.81874 16.85436 35217 ft 454 kts 137°
2026-04-21 13:47 50.77088 16.92054 35215 ft 458 kts 137°
2026-04-21 13:47 50.72296 16.98667 35213 ft 457 kts 136°
2026-04-21 13:48 50.67503 17.05259 35224 ft 458 kts 137°
2026-04-21 13:48 50.62721 17.11821 35211 ft 458 kts 137°
2026-04-21 13:49 50.57909 17.18404 35205 ft 458 kts 137°
2026-04-21 13:49 50.53096 17.24970 35206 ft 458 kts 137°
2026-04-21 13:50 50.48268 17.31539 35198 ft 462 kts 137°
2026-04-21 13:50 50.43392 17.38157 35211 ft 464 kts 137°
2026-04-21 13:51 50.38520 17.44830 35198 ft 464 kts 135°
2026-04-21 13:51 50.33934 17.51924 35200 ft 463 kts 134°
2026-04-21 13:52 50.29371 17.59019 35189 ft 463 kts 133°
2026-04-21 13:52 50.24829 17.66065 35189 ft 463 kts 134°
2026-04-21 13:53 50.20206 17.73200 35187 ft 463 kts 134°
2026-04-21 13:53 50.15628 17.80241 35190 ft 464 kts 135°
2026-04-21 13:54 50.11030 17.87303 35181 ft 467 kts 135°
2026-04-21 13:54 50.06395 17.94401 35176 ft 469 kts 134°
2026-04-21 13:55 50.01674 18.01361 35169 ft 467 kts 138°
2026-04-21 13:55 49.96758 18.07952 35170 ft 465 kts 139°
2026-04-21 13:56 49.91850 18.14493 35156 ft 467 kts 139°
2026-04-21 13:56 49.86921 18.21059 35144 ft 469 kts 139°
2026-04-21 13:57 49.81938 18.27678 35148 ft 472 kts 139°
2026-04-21 13:57 49.76967 18.34261 35148 ft 470 kts 139°
2026-04-21 13:58 49.72013 18.40795 35151 ft 468 kts 139°
2026-04-21 13:58 49.67050 18.47333 35155 ft 469 kts 139°
2026-04-21 13:59 49.62069 18.53879 35148 ft 473 kts 139°
2026-04-21 13:59 49.57100 18.60383 35147 ft 470 kts 139°
2026-04-21 14:00 49.52115 18.66895 35142 ft 468 kts 140°
2026-04-21 14:00 49.47280 18.73593 35132 ft 470 kts 136°
2026-04-21 14:01 49.42554 18.80551 35132 ft 471 kts 136°